Regional Weather Roundup
Issued by NWS

Home | Current Version | Previous Version | Graphics & Text | Print | Product List | Glossary On
Versions: 1 2 3 4 5 6 7 8 9 10 11 12 13 14 15 16 17 18 19 20 21 22 23 24 25 26 27
000
ASUS45 KCYS 250810
RWRWY

WYOMING REGIONAL WEATHER ROUNDUP
NATIONAL WEATHER SERVICE CHEYENNE WY
200 AM MDT SUN SEP 25 2016

NOTE:  "FAIR" INDICATES FEW OR NO CLOUDS BELOW 12,000 FEET
WITH NO SIGNIFICANT WEATHER AND/OR OBSTRUCTIONS TO VISIBILITY.

WYZ001-250900-
YELLOWSTONE NATIONAL PARK

CITY           SKY/WX    TMP DP  RH WIND       PRES   REMARKS
LK YELLOWSTONE   N/A     27  27 100 CALM      30.48R
W YELLOWSTONE  NOT AVBL

$$
WYZ002>013-054>058-071-098>099-250900-
NORTHERN WYOMING

CITY           SKY/WX    TMP DP  RH WIND       PRES   REMARKS
JACKSON        FAIR      34  34 100 N7        30.44R WCI  28
CODY           FAIR      41  38  89 CALM      30.37R
GREYBULL       FOG       43  42  97 CALM      30.32S VSB 1/4
WORLAND        FAIR      41  40  96 S3        30.33R
SHERIDAN       CLOUDY    50  41  71 NW13      30.30R
BUFFALO        CLOUDY    49  36  61 NW16G28   30.30R
GILLETTE       FAIR      45  43  93 W13       30.27R
HULETT         CLOUDY    46  43  87 NW13G22   30.24R
NEWCASTLE      CLOUDY    45  43  93 NW13G20   30.26R

$$
WYZ014>020-022>026-101>103-250900-
CENTRAL WYOMING

CITY           SKY/WX    TMP DP  RH WIND       PRES   REMARKS
BIG PINEY      FAIR      33  31  92 N8        30.44S WCI  26
PINEDALE       FAIR      32  32 100 NW3       30.45R
DUBOIS         FAIR      37  28  70 NW7       30.41R WCI  32
LANDER         CLOUDY    38  35  89 SW5       30.37S WCI  34
RIVERTON       CLOUDY    44  39  82 SW9       30.38S
CASPER         FAIR      41  36  82 W10       30.36R
DOUGLAS        MOCLDY    47  38  71 NW15      30.34R

$$
WYZ021-027>030-104>119-250900-
SOUTHERN WYOMING

CITY           SKY/WX    TMP DP  RH WIND       PRES   REMARKS
EVANSTON       FAIR      37  30  75 S7        30.47S WCI  32
FORT BRIDGER   FAIR      42  33  70 SW10      30.49S
ROCK SPRINGS   FAIR      39  34  82 W3        30.44S
DIXON          FAIR      40  39  94 CALM      30.47R
RAWLINS        FAIR      37  35  92 SW6       30.43R WCI  32
SARATOGA       FAIR      37  37 100 CALM      30.45R
LARAMIE        FAIR      33  30  88 W7        30.40R WCI  27
CHEYENNE       FAIR      44  33  65 NW15G23   30.35R
TORRINGTON     FAIR      45  39  79 NW10      30.28R
PINE BLUFFS    FAIR      43  36  75 NW12      30.33R

$$




USA.gov is the U.S. government's official web portal to all federal, state and local government web resources and services.